User: anonymous   Login
Location: Pine Mountain Observatory
(43.7910°N, 120.9377°W)
Time: 08:10:01
(UTC-07:00)
Language:

Meteor 2-19 Rocket - Orbit

View from above orbital plane
View from above orbital plane
View from above satellite
View from above satellite

Ground track
Ground track

The orbit data is extracted from the following two-line orbital elements,

1 20671U 90057B   15214.47179819  .00000009  00000-0 -54852-5 0  9995
2 20671 082.5459 196.3696 0016625 081.2559 029.8676 13.84592654268316
Epoch (UTC): 02 August 2015 11:19:23
Eccentricity: 0.0016625
inclination: 82.5459°
perigee height: 935 km
apogee height: 960 km
right ascension of ascending node: 196.3696°
argument of perigee: 81.2559°
revolutions per day: 13.84592654
mean anomaly at epoch: 29.8676°
orbit number at epoch: 26831

The dashed part of the orbit path shows where the satellite is in the earth's shadow,  

DLR